This is the latest recevied weather packets stored in our database for station/object KD9IXX-13. If no packets are shown the sender has not sent any weather packets the latest 10 day(s).
| Time | Temp. | Humidity | Pressure | Rain* | Wind** | Luminosity | Snow |
|---|---|---|---|---|---|---|---|
| 1778015702 | 12.22° C | 43% | 1010.7 hPa | 0 mm | - | 101 W/m² | - |
| 1778015402 | 12.22° C | 45% | 1010.8 hPa | 0 mm | - | 122 W/m² | - |
| 1778015102 | 12.22° C | 42% | 1010.8 hPa | 0 mm | - | 121 W/m² | - |
| 1778014802 | 12.22° C | 42% | 1011.1 hPa | 0 mm | - | 123 W/m² | - |
| 1778014502 | 12.22° C | 44% | 1011 hPa | 0 mm | - | 149 W/m² | - |
| 1778014202 | 12.22° C | 48% | 1011 hPa | 0 mm | - | 144 W/m² | - |
| 1778013902 | 12.22° C | 49% | 1010.8 hPa | 0 mm | - | 131 W/m² | - |
| 1778013603 | 12.22° C | 48% | 1011 hPa | 0 mm | - | 117 W/m² | - |
| 1778013303 | 12.22° C | 50% | 1011 hPa | 0 mm | - | 113 W/m² | - |
| 1778013002 | 12.22° C | 47% | 1011.2 hPa | 0 mm | - | 119 W/m² | - |
| 1778012702 | 12.22° C | 47% | 1011.1 hPa | 0 mm | - | 116 W/m² | - |
| 1778012402 | 12.22° C | 48% | 1011.1 hPa | 0 mm | - | 118 W/m² | - |
| 1778012102 | 12.22° C | 49% | 1011.3 hPa | 0 mm | - | 125 W/m² | - |
| 1778011802 | 12.22° C | 46% | 1011.2 hPa | 0 mm | - | 115 W/m² | - |
| 1778011503 | 12.22° C | 47% | 1011 hPa | 0 mm | - | 123 W/m² | - |
| 1778011202 | 12.22° C | 47% | 1011.1 hPa | 0 mm | - | 122 W/m² | - |
| 1778010902 | 12.22° C | 48% | 1011.1 hPa | 0 mm | - | 131 W/m² | - |
| 1778010602 | 12.22° C | 46% | 1010.9 hPa | 0 mm | - | 138 W/m² | - |
| 1778010302 | 12.22° C | 46% | 1010.7 hPa | 0 mm | - | 142 W/m² | - |
| 1778010002 | 12.78° C | 45% | 1011 hPa | 0 mm | - | 145 W/m² | - |
| 1778009702 | 12.78° C | 47% | 1011 hPa | 0 mm | - | 138 W/m² | - |
| 1778009402 | 12.78° C | 47% | 1011.1 hPa | 0 mm | - | 141 W/m² | - |
| 1778009102 | 12.78° C | 45% | 1011.2 hPa | 0 mm | - | 143 W/m² | - |
| 1778008802 | 12.78° C | 46% | 1011 hPa | 0 mm | - | 149 W/m² | - |
| 1778008502 | 12.78° C | 49% | 1011 hPa | 0 mm | - | 168 W/m² | - |
* Rain latest hour (hover to see other rain measurements)
** Current wind speed in m/s (hover to see current wind gust speed)